Globalstar M079

operational
NORAD ID: 37188 Int'l Des: 2010-054 Owner: GLOB Country: US Constellation: globalstar
LEOCIRCULAR

About Globalstar M079

Description loading...

Live Position

Loading 3D Globe...

Upcoming Passes

Altitude History

Altitude vs Time

uPlot chart will show altitude changes over time

Two-Line Element Set

1 37188U 10054A 26062.44806741 -.00000095 00000-0 47861-4 0 9992
2 37188 52.0037 70.5538 0000601 114.0427 50.2878 12.62263828709196
Epoch: Mar 3, 2026 • Age: 32 hours

Current Status

Altitude 1421.5 km
Velocity 7.15 km/s
Sub-Earth Point -26.84°S, 9.92°W
Launch Date Oct 19, 2010
Age 15.3 years
Type communications

Technical Details

Classification Payload
Mass 715.00 kg
Dry Mass 500.00 kg
Total Mass 715.00 kg
Length 4.00 m
Diameter 2.00 m
Span 12.00 m
Shape Trap Cyl + 2 Pan
Manufacturer THALR
Bus Type Prisma
Phase Status In Orbit
Owner/State GLOB/US

Large Constellations

Loading constellations...